Location: Sulphur Springs (historical)
(38.1246°N, 122.1900°W)
Time: 05:41:02
(UTC+00:00)

ATLAS CENTAUR R/B - Pass Details

Date: 29 October 2020
Orbit: 478 x 667 km, 64.7° (Epoch: 22 November)

Event Time Altitude Azimuth Distance (km) Brightness Sun altitude
Rises 12:39:54 0° 181° (S) 2,693 4.8 -22.6°
Reaches altitude 10° 12:42:27 10° 167° (SSE) 1,771 4.0 -22.1°
Maximum altitude 12:45:37 23° 114° (ESE) 1,118 3.6 -21.5°
Drops below altitude 10° 12:48:40 10° 60° (ENE) 1,708 4.6 -20.9°
Sets 12:51:05 0° 46° (NE) 2,573 5.4 -20.4°
